Los Angeles, CA

2:48 PM PDT on August 24, 2016 (GMT -0700)
Los Angeles Downtown

Weather History for KCQT - January, 2013

Change the Weather History Date:

Tuesday, January 8, 2013

  Actual Average Record
Temperature  
Mean Temperature 58 °F 58 °F  
Max Temperature 73 °F 68 °F 90 °F (1923)
Min Temperature 43 °F 48 °F 32 °F (1888)
Degree Days  
Heating Degree Days 7 7  
Month to date heating degree days 82 62  
Since 1 July heating degree days 393 427  
Cooling Degree Days 0 0  
Month to date cooling degree days 0 0  
Year to date cooling degree days 0 0  
Growing Degree Days 8 (Base 50)    
Moisture  
Dew Point 39 °F    
Average Humidity 50    
Maximum Humidity 76    
Minimum Humidity 24    
Precipitation  
Precipitation 0.00 in 0.10 in 1.04 in (1950)
Month to date precipitation 0.12 0.82  
Year to date precipitation 0.12 0.82  
Since 1 July precipitation 3.34  
Sea Level Pressure  
Sea Level Pressure 30.07 in    
Wind  
Wind Speed 1 mph (West)    
Max Wind Speed 7 mph    
Max Gust Speed 10 mph    
Visibility 10 miles    
Events      
T = Trace of Precipitation, MM = Missing Value Source: NWS Daily Summary

Daily Weather History Graph

Daily Weather History Graph

Search for Another Location

Airport or City:

Trip Planner

Search our weather history database for the weather conditions in past years. The results will help you decide how hot, cold, wet, or windy it might be!

Date:

Astronomy

Jan. 08, 2013 Rise Set
Actual Time 6:59 AM PST 5:01 PM PST
Civil Twilight 6:31 AM PST 5:28 PM PST
Nautical Twilight 6:00 AM PST 5:59 PM PST
Astronomical Twilight 5:30 AM PST 6:29 PM PST
Moon 3:38 AM PST (1/8) 2:07 PM PST (1/8)
Length of Visible Light 10h 56m
Length of Day
10h 01m
Waning Crescent, 13% of the Moon is Illuminated
Jan 8
Waning Crescent
Jan 11
New
Jan 18
First Quarter
Jan 26
Full
Feb 3
Last Quarter

Hourly Weather History & Observations

Time (PST) Temp. Dew Point Humidity Pressure Visibility Wind Dir Wind Speed Gust Speed Precip Events Conditions
12:47 AM 48.0 °F 37.9 °F 68% 30.04 in 10.0 mi Calm Calm - N/A   Clear
1:47 AM 46.0 °F 37.9 °F 73% 30.04 in 10.0 mi Calm Calm - N/A   Clear
2:47 AM 46.0 °F 37.0 °F 71% 30.02 in 10.0 mi Calm Calm - N/A   Clear
3:47 AM 44.1 °F 37.0 °F 76% 30.03 in 10.0 mi Calm Calm - N/A   Clear
4:47 AM 45.0 °F 36.0 °F 71% 30.03 in 10.0 mi Calm Calm - N/A   Clear
5:47 AM 44.1 °F 36.0 °F 73% 30.04 in 10.0 mi Calm Calm - N/A   Clear
6:47 AM 44.1 °F 36.0 °F 73% 30.07 in 10.0 mi Calm Calm - N/A   Clear
7:47 AM 46.0 °F 36.0 °F 68% 30.09 in 10.0 mi Calm Calm - N/A   Clear
9:47 AM 60.1 °F 28.0 °F 30% 30.11 in 10.0 mi Calm Calm - N/A   Clear
10:47 AM 63.0 °F 39.0 °F 41% 30.09 in 10.0 mi Variable 3.5 mph - N/A   Clear
11:47 AM 68.0 °F 39.0 °F 35% 30.05 in 10.0 mi Calm Calm - N/A   Clear
12:47 PM 71.1 °F 32.0 °F 24% 30.04 in 10.0 mi Calm Calm - N/A   Clear
1:47 PM 71.1 °F 43.0 °F 36% 30.03 in 10.0 mi Calm Calm - N/A   Clear
2:47 PM 68.0 °F 46.9 °F 47% 30.04 in 10.0 mi West 4.6 mph - N/A   Clear
3:47 PM 66.0 °F 39.9 °F 38% 30.06 in 10.0 mi Calm Calm - N/A   Clear
4:47 PM 62.1 °F 34.0 °F 35% 30.08 in 10.0 mi Variable 3.5 mph - N/A   Clear
5:47 PM 59.0 °F 39.0 °F 48% 30.08 in 10.0 mi Calm Calm - N/A   Clear
6:47 PM 57.0 °F 39.9 °F 53% 30.09 in 10.0 mi Calm Calm - N/A   Clear
7:47 PM 55.0 °F 41.0 °F 59% 30.09 in 10.0 mi Calm Calm - N/A   Clear
8:47 PM 53.1 °F 41.0 °F 64% 30.10 in 10.0 mi Calm Calm - N/A   Clear
9:47 PM 52.0 °F 43.0 °F 71% 30.10 in 10.0 mi Calm Calm - N/A   Clear
10:47 PM 51.1 °F 43.0 °F 74% 30.11 in 10.0 mi Calm Calm - N/A   Clear
11:47 PM 50.0 °F 43.0 °F 77% 30.10 in 10.0 mi Calm Calm - N/A   Clear